[[{"header":{"parameterUnit":"m.s-1","parameterCategory":1,"la1":30.2991,"la2":30.254,"lo1":-89.0895,"lo2":-89.0444,"dy":0.0017,"dx":0.0017,"nx":28,"ny":28,"refTime":"2023-03-13T21:00:00:Z","depth":0,"parameterNumber":2,"parameterNumberName":"U-component_of_WINDS"},"data":[0,0,0,0,0,0,0,0,0,0,0,0,0,0,0,0,0,0,0,0,0,0,0,0,0,0,0,0,0,0,0,0,0,0,0,0,0,0,0,0,0,0,0,0,0,0,0,0,0,0,0,0,0,0,0,0,0,0,-0.8373,-0.8372,0,-0.8345,-0.8344,-0.8344,-0.8308,-0.8308,-0.8307,-0.8307,-0.8279,-0.8279,-0.8278,0,0,0,0,0,0,0,0,0,0,0,0,0,-0.8395,-0.8395,-0.8373,-0.8372,-0.8372,-0.8345,-0.8344,-0.8344,-0.8309,-0.8308,-0.8307,-0.8306,-0.8279,-0.8279,-0.8278,0,0,0,0,0,0,0,0,0,0,0,0,0,-0.8378,-0.8395,-0.8373,-0.8351,-0.8349,-0.8345,-0.8344,-0.8344,-0.8309,-0.8308,-0.8307,-0.8306,-0.8279,-0.8279,-0.8278,-0.8294,0,0,-0.8278,-0.8277,0,0,0,0,0,0,0,0,-0.8379,-0.8377,-0.8354,-0.8352,-0.835,-0.8329,-0.8342,-0.8327,-0.8309,-0.8324,-0.8307,-0.8306,-0.8296,-0.8295,-0.8291,-0.8293,-0.8291,-0.8277,-0.8277,-0.8277,-0.8277,0,0,0,0,0,0,0,-0.838,-0.8378,-0.8362,-0.8354,-0.8351,-0.8343,-0.8339,-0.8339,-0.8315,-0.8323,-0.832,-0.8317,-0.8295,-0.8292,-0.829,-0.8291,-0.8277,-0.8277,-0.8277,-0.8277,-0.8303,-0.8304,0,0,0,0,0,0,-0.8385,-0.838,-0.8362,-0.8361,-0.8363,-0.8343,-0.8339,-0.8337,-0.8315,-0.8311,-0.8318,-0.8315,-0.8293,-0.8291,-0.8289,-0.8306,-0.8277,-0.8277,-0.8277,-0.8302,-0.8303,-0.8304,0,0,0,0,0,0,-0.8385,-0.8384,-0.8364,-0.8369,-0.8366,-0.8343,-0.8341,-0.8337,-0.8333,-0.8312,-0.8307,-0.8319,-0.8292,-0.829,-0.8293,-0.8304,-0.8277,-0.8276,-0.8301,-0.8302,-0.8303,-0.8339,0,0,0,0,0,0,-0.8386,-0.8384,-0.839,-0.837,-0.8366,-0.8368,-0.8342,-0.8337,-0.8333,-0.8329,-0.8311,-0.8308,-0.8291,-0.8293,-0.8293,-0.8303,-0.8276,-0.83,-0.8302,-0.8303,-0.8336,-0.8341,-0.8345,0,0,0,0,0,-0.8387,-0.8401,-0.839,-0.8388,-0.8373,-0.8369,-0.8366,-0.8347,-0.8334,-0.8339,-0.8325,-0.8308,-0.8303,-0.8294,-0.8293,-0.8304,-0.8299,-0.8301,-0.8303,-0.8334,-0.834,-0.8345,0,0,0,0,0,0,-0.8423,-0.8398,-0.8386,-0.8394,-0.8384,-0.8363,-0.8369,-0.8353,-0.8347,-0.8344,-0.832,-0.8316,-0.8322,-0.8313,-0.8304,-0.8317,-0.8298,-0.83,-0.8323,-0.8328,-0.8332,-0.8334,-0.8276,0,0,0,0,0,-0.8432,-0.8431,-0.8409,-0.8418,-0.8413,-0.8392,-0.839,-0.8375,-0.8364,-0.8359,-0.8346,-0.8335,-0.8331,-0.8329,-0.8324,-0.8335,-0.833,-0.8341,-0.8346,-0.8349,-0.8351,-0.8355,-0.836,-0.831,-0.831,-0.831,0,0,-0.8451,-0.8437,-0.8438,-0.8425,-0.8415,-0.8414,-0.8389,-0.8389,-0.8388,-0.8359,-0.8361,-0.8351,-0.8338,-0.8345,-0.8347,-0.8337,-0.8364,-0.8352,-0.8355,-0.8355,-0.8358,-0.8363,-0.8367,-0.8312,-0.8311,-0.8311,0,0,-0.8484,-0.8473,-0.848,-0.847,-0.8456,-0.8441,-0.8443,-0.8424,-0.8416,-0.8417,-0.8395,-0.8394,-0.8387,-0.8379,-0.8373,-0.8402,-0.8386,-0.8401,-0.8424,-0.8428,-0.8432,-0.8436,-0.8446,-0.845,-0.8403,-0.8403,-0.8403,0,-0.8509,-0.8507,-0.8485,-0.8486,-0.8481,-0.8455,-0.846,-0.8453,-0.8437,-0.8435,-0.8424,-0.8414,-0.8404,-0.8408,-0.8415,-0.8411,-0.8412,-0.8403,-0.8433,-0.8437,-0.8439,-0.8449,-0.8453,-0.8405,-0.8405,-0.8405,-0.8405,0,-0.8538,-0.8537,-0.8543,-0.8529,-0.8524,-0.8528,-0.8507,-0.8505,-0.8491,-0.8477,-0.8479,-0.8465,-0.8456,-0.8456,-0.8442,-0.8458,-0.8452,-0.8438,-0.8419,-0.8446,-0.8455,-0.8458,-0.8408,-0.8407,-0.8407,-0.8406,0,0,-0.8594,-0.8567,-0.857,-0.8562,-0.8544,-0.8543,-0.8545,-0.8536,-0.8535,-0.8525,-0.8526,-0.8521,-0.8507,-0.8501,-0.8486,-0.849,-0.8513,-0.8474,-0.8474,-0.8482,-0.8529,-0.854,-0.8545,-0.8502,-0.8503,-0.8503,-0.853,0,-0.8624,-0.8626,-0.8606,-0.8614,-0.8612,-0.8586,-0.8588,-0.8577,-0.8564,-0.8561,-0.8547,-0.8543,-0.8525,-0.8521,-0.8524,-0.851,-0.8522,-0.8507,-0.8503,-0.8503,-0.8507,-0.8549,-0.8561,-0.8587,-0.8533,-0.8534,-0.8534,0,-0.8659,-0.8651,-0.8658,-0.8639,-0.8637,-0.8639,-0.8629,-0.8626,-0.8613,-0.8603,-0.8596,-0.8579,-0.8579,-0.8561,-0.8561,-0.8552,-0.8548,-0.8541,-0.8541,-0.854,-0.852,-0.8549,-0.8595,-0.8599,-0.8539,-0.8539,-0.8538,0,-0.8699,-0.869,-0.8693,-0.8688,-0.8665,-0.8667,-0.8658,-0.8643,-0.8639,-0.863,-0.8627,-0.8619,-0.8614,-0.8608,-0.8588,-0.8577,-0.8591,-0.8571,-0.8583,-0.8583,-0.8587,-0.8587,-0.8633,-0.8585,-0.8585,-0.8585,-0.8585,0,-0.8735,-0.8741,-0.8711,-0.8713,-0.8718,-0.8694,-0.87,-0.8688,-0.8676,-0.8675,-0.8652,-0.8651,-0.8625,-0.8622,-0.8607,-0.8609,-0.8607,-0.8599,-0.8595,-0.8601,-0.8602,-0.8599,-0.8597,-0.8586,-0.8586,-0.8585,-0.8585,0,-0.8781,-0.8761,-0.8763,-0.8741,-0.8735,-0.874,-0.8721,-0.8722,-0.8708,-0.8707,-0.8705,-0.8682,-0.8677,-0.8657,-0.8647,-0.8636,-0.8644,-0.8636,-0.8648,-0.8645,-0.8658,-0.8658,-0.8704,-0.8709,-0.8658,-0.8658,-0.8659,0,-0.8805,-0.8809,-0.8787,-0.8784,-0.8776,-0.8773,-0.8768,-0.8745,-0.8741,-0.8725,-0.8728,-0.872,-0.8713,-0.8706,-0.8689,-0.868,-0.8672,-0.8689,-0.8671,-0.8677,-0.8672,-0.8672,-0.8672,-0.8693,-0.8694,-0.8694,-0.8695,0,-0.885,-0.884,-0.8834,-0.8824,-0.8819,-0.8811,-0.8801,-0.88,-0.8774,-0.8771,-0.8765,-0.876,-0.8749,-0.8742,-0.8731,-0.8721,-0.8703,-0.87,-0.8703,-0.8709,-0.8716,-0.8713,-0.8659,-0.87,-0.8699,-0.8699,-0.8699,-0.8698,-0.8886,-0.8887,-0.8872,-0.8866,-0.8856,-0.8847,-0.8847,-0.8832,-0.8826,-0.8816,-0.8802,-0.8798,-0.8783,-0.8767,-0.8758,-0.8754,-0.8744,-0.8748,-0.8749,-0.875,-0.8753,-0.8717,-0.8752,-0.8752,-0.8752,-0.8751,-0.8751,0,-0.8929,-0.8918,-0.8913,-0.8899,-0.8894,-0.8878,-0.8866,-0.8863,-0.8859,-0.8847,-0.8841,-0.8833,-0.8826,-0.8808,-0.8799,-0.8799,-0.8791,-0.8798,-0.8797,-0.8795,-0.8762,-0.8761,-0.8804,-0.8804,-0.8804,-0.8804,-0.8804,-0.8804,-0.8951,-0.8953,-0.8941,-0.8938,-0.8926,-0.8922,-0.8916,-0.8908,-0.8898,-0.8891,-0.8884,-0.8872,-0.8857,-0.8847,-0.8839,-0.8834,-0.8832,-0.8841,-0.8833,-0.8803,-0.8798,-0.8793,-0.8792,-0.8841,-0.8841,-0.8867,-0.8867,-0.8867]},{"header":{"parameterUnit":"m.s-1","parameterCategory":1,"la1":30.2991,"la2":30.254,"lo1":-89.0895,"lo2":-89.0444,"dy":0.0017,"dx":0.0017,"nx":28,"ny":28,"refTime":"2023-03-13T21:00:00:Z","depth":0,"parameterNumber":3,"parameterNumberName":"V-component_of_WINDS"},"data":[0,0,0,0,0,0,0,0,0,0,0,0,0,0,0,0,0,0,0,0,0,0,0,0,0,0,0,0,0,0,0,0,0,0,0,0,0,0,0,0,0,0,0,0,0,0,0,0,0,0,0,0,0,0,0,0,0,0,-4.3714,-4.3714,0,-4.3754,-4.3755,-4.3755,-4.3751,-4.375,-4.375,-4.3749,-4.3786,-4.3788,-4.3789,0,0,0,0,0,0,0,0,0,0,0,0,0,-4.3631,-4.3632,-4.3714,-4.3714,-4.3715,-4.3754,-4.3755,-4.3755,-4.3751,-4.375,-4.375,-4.3749,-4.3786,-4.3788,-4.379,0,0,0,0,0,0,0,0,0,0,0,0,0,-4.3668,-4.3633,-4.3714,-4.3718,-4.3718,-4.3754,-4.3755,-4.3755,-4.3751,-4.375,-4.3749,-4.3748,-4.3785,-4.3788,-4.379,-4.3823,0,0,-4.3797,-4.3798,0,0,0,0,0,0,0,0,-4.3666,-4.3671,-4.3717,-4.3717,-4.3718,-4.3747,-4.3739,-4.3778,-4.3751,-4.3739,-4.3749,-4.3748,-4.3774,-4.3777,-4.3786,-4.3825,-4.3826,-4.3797,-4.3799,-4.38,-4.38,0,0,0,0,0,0,0,-4.3664,-4.367,-4.373,-4.3717,-4.3718,-4.3716,-4.3721,-4.3746,-4.3761,-4.374,-4.3739,-4.3745,-4.3774,-4.3784,-4.3787,-4.3827,-4.3797,-4.3799,-4.3801,-4.3802,-4.3895,-4.3897,0,0,0,0,0,0,-4.3661,-4.3667,-4.3728,-4.3731,-4.369,-4.3719,-4.3724,-4.3738,-4.376,-4.3763,-4.3745,-4.3744,-4.3781,-4.3784,-4.3788,-4.383,-4.38,-4.3802,-4.3803,-4.3894,-4.3896,-4.3897,0,0,0,0,0,0,-4.3659,-4.3666,-4.3727,-4.3699,-4.3707,-4.3721,-4.3738,-4.374,-4.375,-4.3765,-4.3767,-4.3753,-4.378,-4.3785,-4.3815,-4.3831,-4.3803,-4.3805,-4.3893,-4.3895,-4.3896,-4.3912,0,0,0,0,0,0,-4.3656,-4.3665,-4.3679,-4.37,-4.3708,-4.3754,-4.3739,-4.3741,-4.3754,-4.3753,-4.3773,-4.3775,-4.378,-4.3811,-4.3817,-4.3834,-4.3807,-4.3892,-4.3894,-4.3896,-4.391,-4.3914,-4.3917,0,0,0,0,0,-4.3653,-4.368,-4.3679,-4.3687,-4.3725,-4.3754,-4.3759,-4.3765,-4.3756,-4.3769,-4.3779,-4.3774,-4.3828,-4.3815,-4.3821,-4.3838,-4.3891,-4.3893,-4.3896,-4.3908,-4.3913,-4.3917,0,0,0,0,0,0,-4.3659,-4.3683,-4.3682,-4.3717,-4.3734,-4.3754,-4.3771,-4.377,-4.3789,-4.3787,-4.3792,-4.3796,-4.3827,-4.3835,-4.382,-4.3872,-4.3858,-4.3862,-4.3866,-4.387,-4.3874,-4.3871,-4.3809,0,0,0,0,0,-4.3665,-4.3687,-4.3706,-4.3735,-4.3744,-4.3756,-4.3769,-4.3772,-4.3789,-4.3796,-4.3808,-4.3823,-4.3844,-4.3857,-4.3877,-4.3911,-4.3916,-4.3926,-4.393,-4.3933,-4.3936,-4.3956,-4.3961,-4.3905,-4.3905,-4.3905,0,0,-4.3676,-4.3692,-4.3705,-4.3737,-4.375,-4.3773,-4.3762,-4.3786,-4.3803,-4.3799,-4.3829,-4.3838,-4.3856,-4.3889,-4.3903,-4.3897,-4.3953,-4.3936,-4.3938,-4.394,-4.3959,-4.3964,-4.3969,-4.3907,-4.3906,-4.3906,0,0,-4.3708,-4.3722,-4.3749,-4.3763,-4.3784,-4.3792,-4.3799,-4.3819,-4.3826,-4.3856,-4.3854,-4.3873,-4.3908,-4.3922,-4.3933,-4.3972,-4.3969,-4.3978,-4.3997,-4.4016,-4.4021,-4.4024,-4.4039,-4.4044,-4.3981,-4.3981,-4.3981,0,-4.3719,-4.3754,-4.3762,-4.3787,-4.3801,-4.38,-4.3827,-4.384,-4.3866,-4.3875,-4.3868,-4.3913,-4.3925,-4.3961,-4.3971,-4.398,-4.3987,-4.3976,-4.402,-4.4024,-4.4027,-4.4042,-4.4047,-4.3982,-4.3982,-4.3982,-4.3982,0,-4.3767,-4.3792,-4.381,-4.3838,-4.3854,-4.3879,-4.389,-4.3905,-4.3907,-4.3916,-4.3946,-4.3961,-4.3984,-4.3993,-4.3994,-4.403,-4.4025,-4.4018,-4.4005,-4.4034,-4.4047,-4.4052,-4.3984,-4.3984,-4.3983,-4.3983,0,0,-4.3803,-4.3836,-4.3843,-4.3856,-4.388,-4.3899,-4.3924,-4.3949,-4.3962,-4.398,-4.4002,-4.4032,-4.4027,-4.404,-4.4042,-4.4059,-4.4091,-4.4051,-4.4051,-4.4058,-4.4132,-4.4137,-4.4143,-4.4089,-4.409,-4.4091,-4.413,0,-4.3839,-4.3886,-4.3894,-4.3935,-4.3958,-4.3959,-4.3981,-4.3998,-4.4007,-4.4027,-4.4036,-4.4058,-4.4049,-4.4057,-4.4073,-4.4083,-4.4105,-4.408,-4.4109,-4.411,-4.4105,-4.415,-4.4156,-4.4193,-4.4136,-4.4136,-4.4137,0,-4.3887,-4.3909,-4.3952,-4.3975,-4.3985,-4.4005,-4.4029,-4.4048,-4.4067,-4.4073,-4.4088,-4.4089,-4.4115,-4.41,-4.4136,-4.4119,-4.4131,-4.4138,-4.4139,-4.4143,-4.4126,-4.4155,-4.4205,-4.421,-4.4145,-4.4145,-4.4144,0,-4.391,-4.395,-4.3982,-4.3993,-4.402,-4.4034,-4.4046,-4.4064,-4.4079,-4.4099,-4.4109,-4.4131,-4.4143,-4.416,-4.4167,-4.4155,-4.4203,-4.4188,-4.4208,-4.4208,-4.4218,-4.4218,-4.4271,-4.4225,-4.4225,-4.4225,-4.4225,0,-4.395,-4.3977,-4.3994,-4.4013,-4.4044,-4.4052,-4.4081,-4.4092,-4.4109,-4.413,-4.4131,-4.415,-4.4158,-4.4179,-4.4185,-4.4214,-4.4219,-4.4224,-4.4226,-4.4225,-4.4224,-4.4233,-4.4231,-4.4226,-4.4226,-4.4226,-4.4225,0,-4.3981,-4.3994,-4.4029,-4.4052,-4.4058,-4.408,-4.4099,-4.4118,-4.4127,-4.4154,-4.4161,-4.4175,-4.4199,-4.4208,-4.4237,-4.4241,-4.4276,-4.4274,-4.427,-4.4271,-4.4291,-4.4289,-4.4352,-4.4361,-4.4308,-4.4308,-4.4309,0,-4.4006,-4.4027,-4.4054,-4.4069,-4.4082,-4.4106,-4.4121,-4.413,-4.4146,-4.4171,-4.4186,-4.4211,-4.4232,-4.4271,-4.4283,-4.4306,-4.4306,-4.4326,-4.4309,-4.4308,-4.4307,-4.4306,-4.4309,-4.4329,-4.433,-4.433,-4.4331,0,-4.4049,-4.4055,-4.4078,-4.4104,-4.4123,-4.4143,-4.4163,-4.4175,-4.4187,-4.4204,-4.4231,-4.4247,-4.4278,-4.4303,-4.4327,-4.4337,-4.4336,-4.4336,-4.4342,-4.4342,-4.4339,-4.4342,-4.428,-4.4335,-4.4334,-4.4334,-4.4334,-4.4334,-4.4079,-4.4098,-4.4121,-4.4147,-4.4163,-4.4182,-4.4201,-4.4213,-4.4236,-4.4263,-4.4267,-4.4295,-4.4314,-4.4346,-4.4358,-4.438,-4.4374,-4.4382,-4.4385,-4.4387,-4.4389,-4.4335,-4.4384,-4.4384,-4.4384,-4.4383,-4.4383,0,-4.4123,-4.4137,-4.4162,-4.419,-4.4211,-4.421,-4.4232,-4.4249,-4.4274,-4.4293,-4.4314,-4.4344,-4.4369,-4.4383,-4.4408,-4.4422,-4.4422,-4.4428,-4.4428,-4.443,-4.4392,-4.4385,-4.4428,-4.4428,-4.4428,-4.4428,-4.4428,-4.4428,-4.4148,-4.4182,-4.419,-4.4231,-4.4245,-4.4275,-4.4288,-4.4305,-4.432,-4.4355,-4.4376,-4.4386,-4.4403,-4.4429,-4.4451,-4.4454,-4.4464,-4.447,-4.4474,-4.4437,-4.4433,-4.4429,-4.4422,-4.4472,-4.4472,-4.451,-4.4511,-4.4511]}]]